Location: Pl�tzky
(52.0521°N, 11.8020°E)
Time: 21:15:25
(UTC+00:00)

Cosmos 1943 Rocket - Pass Details

Date: 22 November 2019
Orbit: 811 x 845 km, 71.0° (Epoch: 07 December)

Event Time Altitude Azimuth Distance (km) Brightness Sun altitude
Rises 16:41:40 0° 294° (WNW) 3,408 6.2 -13.2°
Reaches altitude 10° 16:45:53 10° 324° (NW) 2,478 4.9 -13.8°
Maximum altitude 16:48:07 12° 347° (NNW) 2,321 4.5 -14.2°
Drops below altitude 10° 16:50:22 10° 11° (N) 2,480 4.4 -14.5°
Enters shadow 16:52:02 - 25° (NNE) 2,776 4.5 -14.8°
